WZZ9114 LWSK-EHEH

Flight info

Callsign WZZ9114
Flight time N/A
Altitude 34000
Route RAXAD DCT RAMAP DCT DIMSI DCT SIVLA DCT NIDLO DCT LAMSI DCT MAPOX DCT BIGGE DCT DOMEG DCT ROTEK
Aircraft A321/M-SDE3FGHIRWY/LB1

Departure

Time 2026-05-04 19:49
Airport Skopje International Airport (LWSK)

Arrival

Time N/A
Airport Eindhoven Airport (EHEH)
Time Latitude Longitude Altitude Speed Heading
2026-05-04 19:11 41.95626 21.62731 786 ft 0 kts 74°
2026-05-04 19:41 41.95623 21.62713 786 ft 2 kts 74°
2026-05-04 19:41 41.95618 21.62692 786 ft 2 kts 75°
2026-05-04 19:41 41.95614 21.62671 786 ft 2 kts 76°
2026-05-04 19:42 41.95611 21.62649 785 ft 2 kts 112°
2026-05-04 19:42 41.95618 21.62629 786 ft 2 kts 121°
2026-05-04 19:42 41.95627 21.62611 786 ft 2 kts 136°
2026-05-04 19:42 41.95638 21.62598 786 ft 1 kts 153°
2026-05-04 19:43 41.95640 21.62595 786 ft 0 kts 166°
2026-05-04 19:46 41.95627 21.62600 786 ft 5 kts 165°
2026-05-04 19:47 41.95566 21.62622 785 ft 13 kts 165°
2026-05-04 19:47 41.95459 21.62662 783 ft 20 kts 165°
2026-05-04 19:47 41.95321 21.62709 781 ft 21 kts 165°
2026-05-04 19:47 41.95193 21.62753 779 ft 16 kts 169°
2026-05-04 19:48 41.95138 21.62678 778 ft 13 kts 254°
2026-05-04 19:48 41.95115 21.62564 779 ft 12 kts 255°
2026-05-04 19:48 41.95127 21.62504 781 ft 7 kts 339°
2026-05-04 19:48 41.95188 21.62483 781 ft 14 kts 345°
2026-05-04 19:49 41.95498 21.62376 783 ft 83 kts 345°
2026-05-04 19:49 41.96268 21.62109 790 ft 144 kts 345°
2026-05-04 19:49 41.97388 21.61721 1003 ft 175 kts 346°
2026-05-04 19:49 41.98546 21.61313 1815 ft 172 kts 345°
2026-05-04 19:50 41.99314 21.61046 2293 ft 172 kts 345°
2026-05-04 19:50 42.00498 21.60676 2741 ft 183 kts 355°
2026-05-04 19:50 42.01785 21.61139 2865 ft 207 kts 32°
2026-05-04 19:50 42.02734 21.62688 3028 ft 231 kts 67°
2026-05-04 19:51 42.02904 21.64942 3219 ft 254 kts 94°
2026-05-04 19:51 42.02682 21.67321 3863 ft 258 kts 97°
2026-05-04 19:51 42.02376 21.69702 4610 ft 258 kts 98°
2026-05-04 19:51 42.02056 21.72077 5363 ft 258 kts 97°
2026-05-04 19:52 42.02164 21.74473 6019 ft 259 kts 71°
2026-05-04 19:52 42.03029 21.76635 6565 ft 268 kts 56°
2026-05-04 19:52 42.04090 21.78709 7209 ft 271 kts 55°
2026-05-04 19:52 42.05169 21.80792 7920 ft 272 kts 55°
2026-05-04 19:53 42.06253 21.82881 8662 ft 272 kts 55°
2026-05-04 19:53 42.07336 21.84975 9413 ft 273 kts 55°
2026-05-04 19:53 42.08419 21.87076 10135 ft 274 kts 56°
2026-05-04 19:53 42.09542 21.89245 10386 ft 293 kts 54°
2026-05-04 19:54 42.10826 21.91499 10510 ft 314 kts 51°
2026-05-04 19:54 42.12247 21.93833 10811 ft 327 kts 50°
2026-05-04 19:54 42.13728 21.96201 11359 ft 332 kts 50°
2026-05-04 19:54 42.15225 21.98595 11958 ft 336 kts 50°
2026-05-04 19:55 42.16728 22.01018 12551 ft 339 kts 50°
2026-05-04 19:55 42.18240 22.03476 13150 ft 342 kts 50°
2026-05-04 19:55 42.19760 22.05964 13755 ft 345 kts 50°
2026-05-04 19:55 42.21292 22.08483 14306 ft 349 kts 50°
2026-05-04 19:56 42.22832 22.11025 14833 ft 352 kts 50°
2026-05-04 19:56 42.24388 22.13600 15385 ft 355 kts 50°
2026-05-04 19:56 42.25962 22.16204 15844 ft 360 kts 49°
2026-05-04 19:56 42.27803 22.18502 16336 ft 363 kts 32°
2026-05-04 19:57 42.30128 22.19826 16831 ft 367 kts 12°
2026-05-04 19:57 42.32684 22.19960 17317 ft 371 kts 352°
2026-05-04 19:57 42.35110 22.18880 17815 ft 376 kts 332°
2026-05-04 19:57 42.37213 22.16745 18323 ft 381 kts 320°
2026-05-04 19:58 42.39217 22.14367 18798 ft 384 kts 319°
2026-05-04 19:58 42.41222 22.11962 19258 ft 387 kts 320°
2026-05-04 19:58 42.43238 22.09537 19722 ft 389 kts 319°
2026-05-04 19:58 42.45270 22.07093 20172 ft 392 kts 320°
2026-05-04 19:59 42.47322 22.04634 20648 ft 395 kts 320°
2026-05-04 19:59 42.49393 22.02159 21115 ft 397 kts 319°
2026-05-04 19:59 42.51472 21.99674 21583 ft 400 kts 319°
2026-05-04 19:59 42.53561 21.97167 22036 ft 402 kts 319°
2026-05-04 20:00 42.55664 21.94639 22474 ft 405 kts 319°
2026-05-04 20:00 42.57777 21.92100 22907 ft 407 kts 319°
2026-05-04 20:00 42.59903 21.89544 23309 ft 409 kts 318°
2026-05-04 20:00 42.62040 21.86969 23714 ft 412 kts 318°
2026-05-04 20:01 42.64187 21.84379 24056 ft 414 kts 318°
2026-05-04 20:01 42.66345 21.81776 24404 ft 416 kts 318°
2026-05-04 20:01 42.68514 21.79158 24751 ft 417 kts 319°
2026-05-04 20:01 42.70679 21.76545 25228 ft 415 kts 320°
2026-05-04 20:02 42.72835 21.73937 25620 ft 416 kts 320°
2026-05-04 20:02 42.74999 21.71316 25978 ft 417 kts 320°
2026-05-04 20:02 42.77168 21.68690 26316 ft 418 kts 320°
2026-05-04 20:02 42.79317 21.66084 26645 ft 420 kts 320°
2026-05-04 20:03 42.81501 21.63432 26981 ft 421 kts 320°
2026-05-04 20:03 42.83697 21.60763 27304 ft 423 kts 320°
2026-05-04 20:03 42.85896 21.58088 27627 ft 425 kts 320°
2026-05-04 20:03 42.88100 21.55401 27941 ft 426 kts 320°
2026-05-04 20:04 42.90318 21.52695 28259 ft 428 kts 320°
2026-05-04 20:04 42.92543 21.49983 28559 ft 429 kts 320°
2026-05-04 20:04 42.94776 21.47265 28851 ft 431 kts 320°
2026-05-04 20:04 42.97014 21.44538 29149 ft 432 kts 320°
2026-05-04 20:05 42.99258 21.41793 29441 ft 434 kts 320°
2026-05-04 20:05 43.01507 21.39035 29736 ft 435 kts 320°
2026-05-04 20:05 43.03761 21.36266 30040 ft 437 kts 320°
2026-05-04 20:05 43.06029 21.33475 30315 ft 438 kts 320°
2026-05-04 20:06 43.08294 21.30687 30628 ft 438 kts 320°
2026-05-04 20:06 43.10559 21.27898 30975 ft 437 kts 320°
2026-05-04 20:06 43.12811 21.25123 31311 ft 436 kts 320°
2026-05-04 20:06 43.15061 21.22351 31663 ft 434 kts 320°
2026-05-04 20:07 43.17300 21.19586 32068 ft 431 kts 320°
2026-05-04 20:07 43.19522 21.16838 32453 ft 429 kts 320°
2026-05-04 20:07 43.21740 21.14097 32749 ft 429 kts 320°
2026-05-04 20:07 43.23950 21.11366 33049 ft 428 kts 320°
2026-05-04 20:08 43.26166 21.08624 33367 ft 427 kts 320°
2026-05-04 20:08 43.28369 21.05895 33686 ft 426 kts 320°
2026-05-04 20:08 43.30543 21.03198 33999 ft 426 kts 320°
2026-05-04 20:08 43.32738 21.00472 34105 ft 424 kts 320°
2026-05-04 20:09 43.34916 20.97761 34118 ft 421 kts 320°
2026-05-04 20:09 43.39241 20.92360 34122 ft 419 kts 320°
2026-05-04 20:10 43.43510 20.86904 34122 ft 419 kts 317°
2026-05-04 20:10 43.47557 20.81101 34114 ft 420 kts 315°
2026-05-04 20:11 43.51530 20.75179 34102 ft 421 kts 315°
2026-05-04 20:11 43.55534 20.69299 34085 ft 422 kts 316°
2026-05-04 20:12 43.59584 20.63436 34090 ft 422 kts 316°
2026-05-04 20:12 43.63647 20.57553 34095 ft 423 kts 316°
2026-05-04 20:13 43.67705 20.51645 34097 ft 424 kts 316°
2026-05-04 20:13 43.71757 20.45731 34090 ft 424 kts 315°
2026-05-04 20:14 43.75806 20.39797 34091 ft 425 kts 315°
2026-05-04 20:14 43.79861 20.33849 34091 ft 425 kts 315°
2026-05-04 20:15 43.83919 20.27891 34091 ft 425 kts 315°
2026-05-04 20:15 43.87976 20.21921 34075 ft 425 kts 315°
2026-05-04 20:16 43.91999 20.15983 34085 ft 425 kts 315°
2026-05-04 20:16 43.96044 20.10007 34081 ft 425 kts 315°
2026-05-04 20:17 44.00086 20.04012 34097 ft 425 kts 315°
2026-05-04 20:17 44.04121 19.98014 34076 ft 425 kts 315°
2026-05-04 20:18 44.08154 19.92006 34086 ft 424 kts 314°
2026-05-04 20:18 44.12180 19.86010 34085 ft 424 kts 314°
2026-05-04 20:19 44.16207 19.79992 34091 ft 424 kts 314°
2026-05-04 20:19 44.20228 19.73969 34082 ft 424 kts 314°
2026-05-04 20:20 44.24238 19.67946 34075 ft 423 kts 314°
2026-05-04 20:20 44.28234 19.61920 34076 ft 423 kts 314°
2026-05-04 20:21 44.32230 19.55894 34090 ft 423 kts 314°
2026-05-04 20:21 44.38194 19.46888 34085 ft 423 kts 314°
2026-05-04 20:22 44.42179 19.40841 34061 ft 422 kts 313°
2026-05-04 20:22 44.46152 19.34805 34075 ft 421 kts 313°
2026-05-04 20:23 44.50122 19.28764 34077 ft 421 kts 313°
2026-05-04 20:23 44.54093 19.22707 34071 ft 421 kts 314°
2026-05-04 20:24 44.58055 19.16662 34053 ft 421 kts 314°
2026-05-04 20:24 44.62061 19.10674 34054 ft 421 kts 314°
2026-05-04 20:25 44.66096 19.04710 34049 ft 421 kts 314°
2026-05-04 20:25 44.70122 18.98737 34041 ft 421 kts 314°
2026-05-04 20:26 44.74132 18.92735 34047 ft 421 kts 314°
2026-05-04 20:26 44.78133 18.86725 34048 ft 421 kts 314°
2026-05-04 20:27 44.82131 18.80708 34046 ft 421 kts 314°
2026-05-04 20:27 44.86135 18.74686 34048 ft 421 kts 314°
2026-05-04 20:28 44.90144 18.68653 34050 ft 421 kts 314°
2026-05-04 20:28 44.94126 18.62626 34045 ft 422 kts 314°
2026-05-04 20:29 44.98127 18.56553 34035 ft 422 kts 313°
2026-05-04 20:29 45.02126 18.50478 34037 ft 422 kts 313°
2026-05-04 20:30 45.06120 18.44396 34053 ft 422 kts 313°
2026-05-04 20:30 45.10115 18.38308 34044 ft 422 kts 314°
2026-05-04 20:31 45.14270 18.32442 34020 ft 422 kts 317°
2026-05-04 20:31 45.18591 18.26792 34032 ft 423 kts 317°
2026-05-04 20:32 45.22899 18.21118 34030 ft 423 kts 317°
2026-05-04 20:32 45.26447 18.16346 34032 ft 423 kts 317°
2026-05-04 20:33 45.30703 18.10570 34032 ft 423 kts 316°
2026-05-04 20:33 45.34952 18.04788 34020 ft 423 kts 316°
2026-05-04 20:34 45.39214 17.98997 34036 ft 424 kts 316°
2026-05-04 20:34 45.43474 17.93193 34037 ft 424 kts 316°
2026-05-04 20:35 45.47741 17.87369 34040 ft 424 kts 316°
2026-05-04 20:35 45.52006 17.81547 34041 ft 424 kts 316°
2026-05-04 20:36 45.56245 17.75739 34021 ft 425 kts 316°
2026-05-04 20:36 45.60508 17.69877 34028 ft 426 kts 316°
2026-05-04 20:37 45.64779 17.64002 34028 ft 426 kts 316°
2026-05-04 20:37 45.69050 17.58108 34025 ft 427 kts 316°
2026-05-04 20:38 45.73319 17.52200 34028 ft 427 kts 316°
2026-05-04 20:38 45.77594 17.46278 34025 ft 428 kts 316°
2026-05-04 20:39 45.81874 17.40341 34029 ft 428 kts 315°
2026-05-04 20:39 45.86153 17.34380 34020 ft 428 kts 315°
2026-05-04 20:40 45.90427 17.28416 34027 ft 429 kts 315°
2026-05-04 20:40 45.94702 17.22437 34013 ft 429 kts 315°
2026-05-04 20:41 45.98973 17.16442 34011 ft 430 kts 315°
2026-05-04 20:41 46.03253 17.10427 34021 ft 430 kts 315°
2026-05-04 20:42 46.07532 17.04406 34024 ft 430 kts 315°
2026-05-04 20:42 46.11807 16.98372 34029 ft 430 kts 315°
2026-05-04 20:43 46.16057 16.92354 34004 ft 431 kts 315°
2026-05-04 20:43 46.20337 16.86282 34009 ft 432 kts 315°
2026-05-04 20:44 46.24625 16.80198 34007 ft 432 kts 315°
2026-05-04 20:44 46.28913 16.74091 34022 ft 433 kts 315°
2026-05-04 20:45 46.33199 16.67968 34020 ft 433 kts 315°
2026-05-04 20:45 46.37485 16.61827 34017 ft 433 kts 314°
2026-05-04 20:46 46.41771 16.55673 34020 ft 434 kts 314°
2026-05-04 20:46 46.46061 16.49504 34010 ft 434 kts 314°
2026-05-04 20:47 46.50346 16.43324 33996 ft 435 kts 314°
2026-05-04 20:47 46.54635 16.37129 34015 ft 435 kts 314°
2026-05-04 20:48 46.58930 16.30907 33994 ft 435 kts 313°
2026-05-04 20:48 46.63218 16.24679 34000 ft 436 kts 313°
2026-05-04 20:49 46.67510 16.18434 33997 ft 436 kts 314°
2026-05-04 20:49 46.71802 16.12178 33994 ft 437 kts 314°
2026-05-04 20:50 46.76095 16.05899 33991 ft 437 kts 314°
2026-05-04 20:50 46.80390 15.99607 34002 ft 437 kts 314°
2026-05-04 20:51 46.84901 15.93637 33997 ft 438 kts 319°
2026-05-04 20:51 46.89608 15.87975 33997 ft 438 kts 319°
2026-05-04 20:52 46.94277 15.82329 33999 ft 438 kts 319°
2026-05-04 20:52 46.98917 15.76536 34006 ft 437 kts 318°
2026-05-04 20:53 47.03529 15.70700 33998 ft 438 kts 317°
2026-05-04 20:53 47.08152 15.64863 33988 ft 439 kts 317°
2026-05-04 20:54 47.12786 15.59020 33996 ft 439 kts 317°
2026-05-04 20:54 47.17427 15.53156 33998 ft 440 kts 318°
2026-05-04 20:55 47.22057 15.47290 34003 ft 440 kts 317°
2026-05-04 20:55 47.26686 15.41403 33995 ft 440 kts 317°
2026-05-04 20:56 47.31316 15.35506 33992 ft 440 kts 317°
2026-05-04 20:56 47.35949 15.29588 33991 ft 441 kts 317°
2026-05-04 20:57 47.40581 15.23660 33999 ft 441 kts 317°
2026-05-04 20:57 47.45216 15.17719 34006 ft 441 kts 317°
2026-05-04 20:58 47.49838 15.11771 34005 ft 441 kts 316°
2026-05-04 20:58 47.54463 15.05814 34000 ft 441 kts 316°
2026-05-04 20:59 47.59085 14.99846 33984 ft 441 kts 316°
2026-05-04 20:59 47.63695 14.93863 33980 ft 440 kts 316°
2026-05-04 21:00 47.68308 14.87883 33956 ft 440 kts 316°
2026-05-04 21:00 47.72917 14.81885 33954 ft 441 kts 316°
2026-05-04 21:01 47.77529 14.75850 33945 ft 442 kts 316°
2026-05-04 21:01 47.82144 14.69802 33941 ft 442 kts 316°
2026-05-04 21:02 47.86763 14.63749 33937 ft 442 kts 316°
2026-05-04 21:02 47.91376 14.57686 33923 ft 442 kts 316°
2026-05-04 21:03 47.95989 14.51608 33924 ft 442 kts 316°
2026-05-04 21:03 48.00601 14.45529 33927 ft 442 kts 316°
2026-05-04 21:04 48.05183 14.39460 33936 ft 442 kts 316°
2026-05-04 21:04 48.09781 14.33355 33945 ft 442 kts 316°
2026-05-04 21:05 48.14375 14.27230 33955 ft 442 kts 316°
2026-05-04 21:05 48.18963 14.21095 33968 ft 442 kts 315°
2026-05-04 21:06 48.23551 14.14953 33966 ft 442 kts 315°
2026-05-04 21:06 48.28133 14.08808 33963 ft 442 kts 315°
2026-05-04 21:07 48.32714 14.02658 33914 ft 441 kts 315°
2026-05-04 21:07 48.37292 13.96504 33914 ft 441 kts 315°
2026-05-04 21:08 48.41863 13.90326 33934 ft 441 kts 315°
2026-05-04 21:08 48.46430 13.84135 33925 ft 442 kts 315°
2026-05-04 21:09 48.50995 13.77932 33924 ft 442 kts 315°
2026-05-04 21:09 48.55564 13.71698 33929 ft 442 kts 315°
2026-05-04 21:10 48.60123 13.65474 33932 ft 442 kts 314°
2026-05-04 21:10 48.64682 13.59232 33933 ft 441 kts 313°
2026-05-04 21:11 48.68750 13.52346 33926 ft 439 kts 307°
2026-05-04 21:11 48.72703 13.45353 33920 ft 440 kts 307°
2026-05-04 21:12 48.76680 13.38306 33938 ft 440 kts 307°
2026-05-04 21:12 48.80662 13.31259 33935 ft 440 kts 307°
2026-05-04 21:13 48.83995 13.25351 33940 ft 439 kts 307°
2026-05-04 21:13 48.87957 13.18285 33944 ft 440 kts 307°
2026-05-04 21:14 48.91890 13.11242 33941 ft 440 kts 307°
2026-05-04 21:14 48.95849 13.04126 33940 ft 441 kts 307°
2026-05-04 21:15 48.99803 12.96998 33949 ft 441 kts 307°
2026-05-04 21:15 49.03770 12.89853 33949 ft 441 kts 307°
2026-05-04 21:16 49.07727 12.82721 33957 ft 441 kts 307°
2026-05-04 21:16 49.11679 12.75559 33953 ft 440 kts 307°
2026-05-04 21:17 49.15617 12.68393 33948 ft 440 kts 307°
2026-05-04 21:17 49.19557 12.61218 33953 ft 440 kts 307°
2026-05-04 21:18 49.23490 12.54046 33954 ft 440 kts 307°
2026-05-04 21:18 49.27418 12.46861 33966 ft 440 kts 307°
2026-05-04 21:19 49.31309 12.39702 33979 ft 440 kts 307°
2026-05-04 21:19 49.35216 12.32489 33968 ft 439 kts 307°
2026-05-04 21:20 49.39146 12.25223 33963 ft 440 kts 307°
2026-05-04 21:20 49.43050 12.18001 33972 ft 440 kts 307°
2026-05-04 21:21 49.46959 12.10764 33981 ft 440 kts 306°
2026-05-04 21:21 49.47798 12.09208 33970 ft 440 kts 306°
2026-05-04 21:22 49.51704 12.01937 33973 ft 441 kts 306°
2026-05-04 21:22 49.55599 11.94629 33985 ft 442 kts 306°
2026-05-04 21:23 49.59500 11.87298 34004 ft 442 kts 306°
2026-05-04 21:23 49.63379 11.80012 34008 ft 442 kts 306°
2026-05-04 21:24 49.67281 11.72668 34024 ft 442 kts 306°
2026-05-04 21:24 49.71182 11.65318 34009 ft 442 kts 306°
2026-05-04 21:25 49.75063 11.57960 33999 ft 441 kts 306°
2026-05-04 21:25 49.78929 11.50600 33990 ft 441 kts 305°
2026-05-04 21:26 49.82794 11.43228 33983 ft 440 kts 305°
2026-05-04 21:26 49.86654 11.35857 34006 ft 440 kts 305°
2026-05-04 21:27 49.90502 11.28505 34000 ft 438 kts 305°
2026-05-04 21:27 49.94324 11.21165 33996 ft 436 kts 305°
2026-05-04 21:28 49.98129 11.13824 33992 ft 435 kts 304°
2026-05-04 21:28 50.01913 11.06492 33988 ft 435 kts 304°
2026-05-04 21:29 50.05159 11.00205 33989 ft 434 kts 304°
2026-05-04 21:29 50.08943 10.92862 33979 ft 435 kts 304°
2026-05-04 21:30 50.12729 10.85492 33980 ft 435 kts 304°
2026-05-04 21:30 50.16512 10.78098 33988 ft 435 kts 304°
2026-05-04 21:31 50.22143 10.67048 33992 ft 435 kts 304°
2026-05-04 21:32 50.25917 10.59628 34014 ft 435 kts 303°
2026-05-04 21:32 50.29681 10.52201 33995 ft 436 kts 303°
2026-05-04 21:33 50.33452 10.44741 33999 ft 436 kts 303°
2026-05-04 21:33 50.37212 10.37270 33999 ft 437 kts 303°
2026-05-04 21:34 50.40957 10.29823 34006 ft 437 kts 303°
2026-05-04 21:34 50.44717 10.22333 34029 ft 437 kts 302°
2026-05-04 21:35 50.48462 10.14836 34016 ft 436 kts 303°
2026-05-04 21:35 50.52211 10.07314 34014 ft 436 kts 302°
2026-05-04 21:36 50.55941 9.99795 34011 ft 435 kts 302°
2026-05-04 21:36 50.59656 9.92281 34008 ft 435 kts 302°
2026-05-04 21:37 50.63352 9.84808 34014 ft 435 kts 302°
2026-05-04 21:37 50.67068 9.77278 34025 ft 435 kts 302°
2026-05-04 21:38 50.70780 9.69725 34019 ft 435 kts 302°
2026-05-04 21:38 50.74284 9.62527 34016 ft 435 kts 302°
2026-05-04 21:39 50.77779 9.55108 34100 ft 404 kts 300°
2026-05-04 21:39 50.79356 9.51558 34036 ft 386 kts 298°
2026-05-04 21:39 50.80778 9.48365 33796 ft 376 kts 299°
2026-05-04 21:39 50.82101 9.45417 33620 ft 355 kts 298°